Flag for U.S.A. Weather past 2 weeks in Overland Park, Kansas, U.S.A.

Now
63 °F

Passing clouds.


Feels Like: 63 °F
Forecast: 66 / 76 °F
Wind: 7 mph from Southeast

Location: Johnson County Executive Airport

Current Time: May 29, 2015 at 2:26:11 AM

Latest Report: May 29, 2015 at 1:53 AM


Visibility: 10 mi

Pressure: 29.92 "Hg

Humidity: 100%

Dew point: 63 °F

Location of Overland ParkLocation

Historic Weather in Overland Park — Graph

°F

Overland Park temperature yesterday

Maximum temperature yesterday: 70 °F (at 11:53 AM)
Minimum temperature yesterday: 65 °F (at 6:53 AM)
Average temperature yesterday: 68 °F

Past Weeks' High & Low Weather Summary

 TemperatureHumidityPressure
High81 °F (May 16, 4:53 PM)100% (May 14, 6:53 AM)30.31 "Hg (May 14, 6:53 AM)
Low46 °F (May 19, 5:53 AM)40% (May 21, 6:53 PM)29.68 "Hg (May 17, 2:53 AM)
Average64 °F80%30.00 "Hg
* Reported May 14 12:53 AM — May 29 12:53 AM, Overland Park, Weather by CustomWeather, © 2015

Note: Actual official high and low records may vary slightly from our data, if they occured in-between our weather recording intervals... More about our weather records

Advertising

Overland Park weather history for previous 24 hours

 ConditionsComfort  
Time TempWeatherWind HumidityBarometerVisibility
12:53 AM
Fri, May 29
64 °FClear.7 mph97%29.95 "Hg10 mi
11:53 PM
Thu, May 28
65 °FClear.7 mph94%29.97 "Hg10 mi
10:53 PM66 °FClear.8 mph93%29.98 "Hg10 mi
9:53 PM67 °FPassing clouds.7 mph90%29.96 "Hg10 mi
8:53 PM68 °FSunny.6 mph87%29.95 "Hg10 mi
7:53 PM69 °FSunny.6 mph81%29.94 "Hg10 mi
6:53 PM70 °FSunny.8 mph79%29.94 "Hg10 mi
5:53 PM70 °FSunny.6 mph81%29.95 "Hg10 mi
4:53 PM70 °FOvercast.6 mph81%29.99 "Hg10 mi
3:53 PM70 °FMostly cloudy.8 mph87%29.99 "Hg10 mi
2:53 PM69 °FLight rain. Overcast.9 mph93%30.02 "Hg10 mi
1:53 PM68 °FLight rain. More clouds than sun.7 mph93%30.06 "Hg8 mi
12:55 PM68 °FThunderstorms. Fog.23 mph87%30.10 "Hg1 mi
11:53 AM70 °FBroken clouds.8 mph84%30.06 "Hg10 mi
10:53 AM67 °FScattered clouds.6 mph90%30.06 "Hg10 mi
9:53 AM67 °FMostly cloudy.9 mph90%30.05 "Hg10 mi
8:53 AM66 °FPartly sunny.10 mph90%30.05 "Hg10 mi
7:53 AM66 °FSunny.5 mph90%30.05 "Hg10 mi
6:53 AM65 °FThunderstorms. Mostly cloudy.8 mph87%30.08 "Hg8 mi
5:53 AM67 °FPassing clouds.8 mph73%30.05 "Hg10 mi
4:53 AM67 °FClear.7 mph71%30.03 "Hg10 mi
3:53 AM68 °FPartly cloudy.9 mph65%30.03 "Hg10 mi
2:53 AM68 °FPassing clouds.8 mph65%30.03 "Hg10 mi
Weather by CustomWeather, © 2015

See weather overviewHow to use our weather pages